This demonstration page uses our WeatherBlox Daily Observations layout. Learn more.

Left ArrowRight Arrow

41.55636, -103.73856

Hourly Observations for April 4, 2018

Temp ( °F °C ) Dew Point ( °F °C ) Humidity (%) Winds ( mph kmh ) Pressure ( in mb ) Visibility ( mi km ) Precip ( " mm )
4:56 am 04:56 Partly Cloudy 21 -5.9 14 -10.2 72 72 SSW 6 9 30.12 1020 10 16 N/A
5:58 am 05:58 Mostly Clear 20 -6.6 13 -10.7 73 73 WSW 7 11 30.25 1024 10 16 N/A
6:58 am 06:58 Sunny 23 -4.9 13 -10.4 66 66 W 9 15 30.19 1022 10 16 N/A
7:58 am 07:58 Sunny 28 -2.4 15 -9.6 58 58 WSW 9 15 30.15 1021 10 16 N/A
8:58 am 08:58 Sunny 35 1.7 15 -9.5 44 44 WSW 13 20 30.05 1018 10 16 N/A
9:58 am 09:58 Sunny 50 9.9 6 -14.4 17 17 W 18 30 29.89 1012 10 16 N/A
10:58 am 10:58 Sunny 56 13.1 7 -14.1 14 14 WNW 35 56 29.82 1010 10 16 N/A
11:58 am 11:58 Mostly Sunny 56 13.6 10 -12.4 15 15 WNW 33 54 29.80 1009 10 16 N/A
12:58 pm 12:58 Mostly Sunny 59 14.8 14 -9.8 17 17 WNW 32 52 29.77 1008 10 16 N/A
1:58 pm 13:58 Sunny 59 14.8 12 -10.9 16 16 WNW 31 50 29.76 1008 10 16 N/A
2:58 pm 14:58 Sunny 56 13.5 18 -8 22 22 WNW 36 57 29.79 1009 10 16 N/A
3:58 pm 15:58 Sunny 58 14.3 18 -7.7 21 21 WNW 30 48 29.77 1008 10 16 N/A
4:58 pm 16:58 Mostly Cloudy 56 13.6 17 -8.3 21 21 W 26 43 29.77 1008 10 16 N/A
5:58 pm 17:58 Mostly Cloudy 56 13.5 18 -7.7 22 22 WNW 26 43 29.95 1014 10 16 N/A
6:58 pm 18:58 Mostly Cloudy 54 12.1 21 -6 28 28 WNW 17 28 29.96 1015 10 16 N/A
7:58 pm 19:58 Mostly Cloudy 51 10.7 17 -8.2 26 26 WNW 15 24 29.97 1015 10 16 N/A
8:58 pm 20:58 Cloudy 47 8.4 22 -5.7 37 37 N 7 11 30.01 1016 10 16 N/A
9:58 pm 21:58 Cloudy with Light Rain 46 7.9 26 -3.4 45 45 NNW 5 7 29.95 1014 10 16 N/A
10:58 pm 22:58 Cloudy 41 5.2 24 -4.6 50 50 E 6 9 29.96 1015 10 16 N/A
11:58 pm 23:58 Mostly Cloudy 40 4.2 21 -5.9 48 48 E 8 13 29.95 1014 10 16 N/A

Powered by AerisWeather